Location: Pasadena, ca
(34.1243°N, 118.1037°W)
Time: 07:28:45
(UTC-07:00)

Vanguard 2 - Visible Passes

Search period start: 20 October 2017 00:00
Search period end: 30 October 2017 00:00
Orbit: 554 x 2939 km, 32.9° (Epoch: 19 October)

Date Brightness Start Highest point End Pass type
(mag) Time Alt. Az. Time Alt. Az. Time Alt. Az.
20 Oct 11.8 05:39:53 10° S 05:52:22 24° SE 06:02:50 10° E visible
21 Oct 11.5 05:56:09 10° SSW 06:10:33 32° SSE 06:22:12 10° E visible
22 Oct 11.9 04:09:12 10° SSE 04:17:26 15° SE 04:25:16 10° ESE visible
22 Oct 11.2 06:13:02 10° SSW 06:28:45 40° SSE 06:41:05 10° E visible
23 Oct 11.8 04:23:46 10° S 04:35:30 22° SE 04:46:25 10° E visible
23 Oct 11.0 06:30:20 10° SW 06:46:58 49° SSE 06:59:40 10° E visible
24 Oct 11.5 04:39:40 10° SSW 04:53:33 29° SE 05:06:13 10° E visible
25 Oct 11.9 02:56:17 10° SSE 03:00:43 11° SE 03:05:10 10° ESE visible
25 Oct 11.3 04:56:17 10° SSW 05:11:35 37° SE 05:25:22 10° E visible
26 Oct 11.7 03:08:53 10° S 03:18:37 18° SE 03:28:30 10° E visible
26 Oct 11.0 05:13:23 10° SW 05:29:41 46° SSE 05:44:08 10° E visible
27 Oct 11.5 03:26:08 14° S 03:36:28 25° SE 03:49:02 10° E visible
27 Oct 10.8 05:30:49 10° SW 05:47:50 55° SSE 06:02:42 10° E visible
28 Oct 11.3 03:44:14 19° S 03:54:20 33° SE 04:08:35 10° E visible
28 Oct 10.7 05:48:34 10° SW 06:06:04 63° SSE 06:21:06 10° E visible
29 Oct 11.7 02:00:42 13° SE 02:01:59 13° SE 02:08:19 10° ESE visible
29 Oct 11.0 04:02:12 23° SSW 04:12:15 41° SE 04:27:37 10° E visible
29 Oct 10.5 06:06:34 10° WSW 06:24:23 71° SSE 06:39:28 10° E visible
